Showing default

JILIN-01 GAOFEN 2F, 49338

Orbit data source: Space-Track

JILIN-01 GAOFEN 2F, 49338 is a payload satellite owned by Changguang WJ (CN) in SSO that was launched on Wed, 27 Oct 2021 UTC via a KUAIZHOU-1A launch vehicle from the Jiuquan Satellite Launch Center, China (JSC). Payload-class satellites include a variety of spacecraft equipped with specific instruments for various scientific and technological missions. These include communications satellites like Starlink; space stations such as the ISS; scientific satellites like the Hubble; Earth observation satellites from companies like Planet Labs, Umbra, and HawkEye 360; GPS; miniature CubeSats for education and research; and military/defense satellites.

Loading next visibility...
Identifier
49338, 2021-097A
Orbit
SSO
Country
Flag of CNCN / PRC
Related business
Manufacturer
Changguang WJ
Mission
Operational Commercial Imaging
Bus & Motor
JL-1, Unknown motor
Mass
230 kg wet, 230 kg dry
Launch date (UTC)
2021-10-27 (5 years ago)
Launch vehicle
KUAIZHOU-1A
Launch site
Jiuquan Satellite Launch Center, China (JSC)
Object type
Payload
Rocket body
Debris
Shape & HBR
Box + 2 Pan, 1.5 m
Radar Cross Section
1.019 m², Large (>1 m²)

Expand to show TLE details & history
Last TLE update: 2 days ago

TLE from 2 days ago
0 JILIN-01 GAOFEN 2F
1 49338U 21097A   26171.41978503  .00003272  00000-0  21748-3 0  9999
2 49338  97.6710 297.6119 0017989 212.2790 147.7338 15.07775535256800
Epoch: 2026-06-20T10:04Z
TLE epoch observation values (Epoch: 2026-06-20T10:04:29.426Z)
Latitude
-0.00006°
Longitude
-122.14537°
Altitude
556.601 km
Speed
7.578 km/s
True Right ascension
19h 50m 26s
True Declination
0° 00' 00"
Sunlit
Object was in full shadow at epoch
Visualization orbit readout
Latitude
Unknown
Longitude
Unknown
Altitude
Unknown
Speed
Unknown
Apparent Right ascension
Unknown
Apparent Declination
Unknown
Sunlit
N/A
Visualization observer readout
Local Sidereal Time
21:27:27
Azimuth
Unknown
Elevation
Unknown
Doppler factor
Unknown
Orbital elements
Apogee altitude
552.438 km
Perigee altitude
527.548 km
Semi-major axis
6,918.13 km
Eccentricity
0.0018
Inclination
97.671°
RAAN
297.6119°
Arg. of periapsis
212.279°
True anomaly
147.84364°
Mean anomaly
147.7338°
Eccentric anomaly
147.78874°
Mean motion
3.7719 °/min
Orbital period
95.44 mins
BSTAR
0.00021748
Loading maneuver chart data...
Computing Atmospheric mass density...
Loading historical data...
Loading historical data...
Loading historical data...
Loading historical data...
Loading historical data...
Loading historical data...
Loading historical data...
Other satellites on launch #97 in the year 2021 (2021-10-27 UTC)

Documentation

Showing up to 5 results
|